Weather in Wajima

Japan     37°22′41″N   136°48′41″E
temp.,
°C
wind,
m/s
gust,
m/s
humid.,
%
clouds,
%
prec.,
mm/h
press.,
hPa
HPBL,
m
8 december, wed
wed800:00+12nne131375100 0.9 10221135
03:00+11nne131369100 0.9 10231135
06:00+11n131468100 0.0 10231109
09:00+12n12126798 0.0 10251464
12:00+11n121272100 0.1 10251229
15:00+11n111267100 0.1 10261194
18:00+12nne11116676 0.0 10281363
21:00+12nne1010655 0.0 10281295
9 december, thu
thu900:00+12nne986642 0.0 10291146
03:00+12nne876547 0.0 10291278
06:00+12ne786241 0.0 10291346
09:00+12ne66657 0.0 10301072
12:00+12ne67623 0.0 10291150
15:00+12ene66621 0.0 10281143
18:00+12ne66630 0.0 10291017
21:00+12ene6665100 0.0 1028967
10 december, fri
fri1000:00+12e5566100 0.0 10271012
03:00+12e3363100 0.0 1026859
06:00+12ese2266100 0.0 1026802
09:00+12ese3268100 0.0 1026710
12:00+12sw1268100 0.0 1024624
15:00+12nw226887 0.0 1024511
18:00+12nw236696 0.1 1024515
21:00+12wnw446459 0.1 1025779
11 december, sat
sat1100:00+13w555997 0.1 10251397
03:00+13wsw33560 0.1 10251059
06:00+13w34570 0.0 10251068
09:00+13wsw33595 0.0 1026948
12:00+13sw45615 0.0 1024884
15:00+13wnw5568100 0.1 1024948
18:00+13n3271100 0.2 1024620
21:00+12ne227195 0.3 1024623
12 december, sun
sun1200:00+12sse227398 0.1 1022558
03:00+13ssw6775100 0.3 1021691
06:00+13wsw6769100 0.5 10201120
09:00+14sw9107097 0.9 10191150
12:00+14sw131471100 0.4 10161256
15:00+14sw151782100 2.8 10141321
18:00+14wsw131673100 2.2 10131507
21:00+13w121469100 3.4 10131441